Wind_Speed
3 3 2 1 1 0 1 1 0 0 1 2 2 2 2 2 1 1 2 2 2 2 2 3 3 3 3 3 3 3 3 3 3 3 3 3 3 4 4 5 4 5 5
2 2 1 1 0 0 0 1 1 1 2 2 2 2 2 2 2 2 2 2 3 3 3 4 4 4 4 4 4 4 4 4 4 4 4 4 4 4 5 6 6 6 6
1 2 1 1 0 1 1 2 1 2 2 3 3 3 3 2 2 3 3 3 3 3 4 4 4 4 5 5 5 5 5 5 4 5 5 5 5 6 6 7 7 7 7
1 1 1 0 1 1 2 2 2 3 2 3 3 3 3 3 3 4 4 4 4 4 5 5 5 5 6 6 6 6 6 6 6 6 6 6 6 6 7 8 8 8 8
1 1 1 1 2 2 2 3 3 3 3 4 4 4 4 4 4 4 4 4 5 5 6 6 6 6 6 7 7 7 7 7 7 7 7 7 7 7 7 8 7 8 8
1 1 1 2 2 3 3 4 4 4 4 4 5 5 5 5 5 5 6 6 6 6 7 7 7 7 7 7 7 7 7 7 7 8 8 8 8 8 8 8 8 8 9
2 2 2 2 3 3 4 4 4 5 5 5 5 5 5 5 6 6 7 8 8 8 8 7 7 7 8 8 8 8 8 8 8 9 9 9 9 9 10 10 9 9 9
3 3 3 3 4 4 4 5 5 6 6 7 7 7 7 7 7 7 7 8 8 8 8 8 8 8 9 9 9 9 9 10 10 10 11 11 11 11 11 11 11 11 11
4 4 4 5 5 5 5 6 7 7 8 9 9 9 9 9 9 9 9 10 10 10 10 10 10 10 10 11 11 11 11 11 11 12 12 12 12 12 12 12 13 13 13
6 6 6 6 7 8 8 9 9 10 10 11 11 11 12 12 12 12 12 12 12 12 12 12 12 12 13 12 12 13 13 12 12 13 13 14 14 14 14 15 16 15 15
7 7 8 9 9 10 10 11 11 12 12 13 13 13 13 13 14 14 14 14 14 14 14 14 15 15 14 14 14 15 15 15 15 14 15 15 15 16 16 17 18 17 17
9 9 10 10 11 12 13 13 13 13 14 15 14 14 14 15 15 15 15 15 16 16 16 17 17 17 17 17 16 16 16 17 16 17 16 17 17 18 18 18 18 18 19
11 11 11 13 13 14 14 14 15 15 16 16 16 15 15 16 17 17 17 17 17 18 18 19 18 18 19 19 18 18 18 18 18 18 18 18 19 20 19 20 19 20 20
14 14 14 14 15 15 16 16 16 17 17 18 18 17 17 17 18 18 19 19 20 19 20 21 21 20 19 19 18 19 19 20 20 20 20 20 21 21 21 21 21 21 22
16 17 17 17 17 17 17 18 19 19 19 19 19 19 19 19 19 20 20 20 21 22 22 22 22 21 21 21 20 20 20 21 22 22 22 23 23 24 23 23 24 24 24
18 19 19 20 20 20 20 20 21 21 21 21 21 21 21 21 21 21 22 22 22 23 23 24 24 23 23 23 22 21 22 22 22 23 24 24 25 25 25 26 26 26 25
21 21 21 22 23 23 23 23 23 23 22 22 22 23 23 23 23 23 23 23 23 23 23 23 23 23 24 24 24 24 23 23 24 24 25 25 26 27 27 27 27 27 27
22 23 24 24 24 25 25 26 25 25 24 24 24 24 25 25 25 25 25 26 26 26 26 26 25 25 25 25 25 25 25 25 26 27 27 27 27 28 28 28 28 28 28
24 25 26 26 27 27 28 28 28 28 28 27 27 27 27 27 27 27 27 27 28 28 28 27 27 27 26 26 26 26 27 26 27 28 28 28 29 28 28 29 29 29 29
26 27 28 28 29 30 30 30 30 30 30 30 29 29 29 29 29 29 29 29 29 28 28 28 28 28 27 27 27 27 27 28 29 29 28 29 29 29 29 29 29 30 30
28 29 29 30 31 32 32 32 32 32 32 32 31 31 31 31 30 30 30 30 30 30 29 30 30 30 29 28 28 28 28 29 30 29 30 30 30 30 29 29 30 30 30
31 32 32 32 32 33 33 33 33 33 34 33 33 33 32 32 31 31 31 31 31 31 31 31 31 31 30 30 30 30 30 30 31 31 31 31 31 31 31 31 31 31 31
34 35 35 35 34 35 35 35 35 35 35 35 35 35 35 34 34 33 32 32 32 31 31 31 30 30 30 31 32 31 31 32 32 32 32 32 32 32 32 32 32 31 32
36 36 37 37 37 36 36 36 36 36 35 36 37 37 37 36 35 34 33 33 33 33 32 32 31 32 32 32 33 33 33 33 33 32 33 33 33 33 33 33 33 32 32
37 37 37 37 37 37 37 37 37 38 39 38 38 38 38 37 37 35 34 34 34 34 34 34 33 34 34 34 34 34 34 34 34 33 33 34 34 33 33 33 33 32 32
37 38 38 38 38 37 37 38 38 39 40 39 39 38 38 37 37 36 36 36 36 36 36 35 35 35 35 35 35 35 35 35 35 34 34 34 33 34 33 33 33 33 32
Wind_Direction
152 155 145 148 160 40 55 60 86 335 287 301 325 335 319 317 309 304 309 294 283 291 311 314 317 310 298 289 281 277 282 284 285 289 283 284 293 297 302 315 311 305 301
154 153 145 130 172 355 325 315 291 302 305 305 318 322 310 300 298 299 307 304 294 300 300 300 299 300 300 295 288 283 280 289 291 289 282 277 281 288 291 299 307 304 300
145 149 122 106 52 353 339 306 292 296 296 291 297 301 307 301 293 300 304 302 296 295 296 294 293 299 302 301 295 289 279 283 290 287 284 283 283 286 289 295 300 300 294
141 161 141 140 322 338 333 323 311 304 300 293 298 300 305 306 301 302 301 296 298 298 294 290 288 290 296 297 293 291 288 286 286 285 282 283 285 286 291 295 296 296 295
151 204 231 272 294 311 317 318 309 307 304 303 302 302 302 303 302 298 293 291 294 297 295 294 293 290 290 291 291 288 289 293 291 288 286 280 282 287 290 294 294 299 303
254 267 281 281 301 314 317 310 303 303 306 303 295 295 298 300 301 299 295 290 288 291 294 294 292 292 289 288 288 285 285 288 286 282 285 288 284 286 291 291 293 294 298
297 296 298 283 305 308 314 315 310 304 300 295 293 291 291 293 296 297 296 294 291 289 291 293 292 291 289 289 286 284 285 285 283 278 279 284 286 285 285 286 288 290 293
289 302 299 307 307 305 306 308 312 311 308 301 295 293 293 294 295 297 299 297 295 294 291 289 290 292 292 290 288 288 286 285 282 278 278 280 282 284 283 281 284 286 288
290 298 309 308 303 302 302 303 304 304 306 306 301 294 291 290 292 293 292 292 291 291 290 288 286 288 291 291 286 287 289 287 284 281 281 281 282 283 282 281 282 285 287
284 289 295 302 303 306 303 303 305 301 303 303 300 297 291 289 288 290 291 292 290 288 287 287 287 288 288 287 286 285 284 284 286 284 281 282 283 284 283 282 281 280 281
283 287 293 296 300 302 302 300 302 301 301 301 297 293 290 289 288 287 287 289 289 287 288 286 285 285 286 285 283 283 282 283 284 283 283 283 282 284 284 281 282 283 282
289 287 292 293 295 298 299 298 300 299 298 298 294 290 289 289 291 290 287 287 287 287 287 287 286 284 282 281 280 280 281 282 282 282 282 282 282 284 283 283 285 284 283
290 290 291 290 292 296 296 296 296 296 297 295 291 288 287 290 290 290 291 289 287 286 287 287 287 285 284 280 278 277 278 279 279 280 281 281 281 282 281 283 284 284 283
287 287 288 292 293 293 294 294 296 297 295 294 291 288 286 288 289 289 290 289 289 289 287 287 287 285 283 281 278 276 277 278 278 279 280 281 280 281 279 281 281 283 283
282 284 287 289 290 291 291 292 293 293 291 290 289 288 287 285 288 290 289 289 289 289 289 290 287 285 283 282 279 277 277 277 277 278 278 280 281 282 280 281 282 282 282
284 284 286 287 287 287 288 290 291 290 287 287 286 285 288 287 287 288 288 286 287 288 285 286 285 284 283 283 279 279 279 278 278 278 279 280 281 281 281 281 282 282 282
283 284 285 285 286 285 285 286 288 289 287 285 285 285 286 285 286 287 287 285 285 285 285 286 286 282 281 281 281 279 279 278 278 279 280 281 282 282 282 280 281 281 282
284 284 284 284 284 284 283 284 285 285 285 285 285 286 286 285 285 286 286 286 285 283 283 285 286 284 282 282 282 280 278 278 278 279 279 281 282 282 281 281 281 281 282
285 284 284 283 283 282 282 282 282 282 283 283 284 284 285 284 284 284 285 284 284 284 283 283 283 284 282 283 284 282 282 280 280 280 280 281 281 281 281 281 280 281 281
286 285 284 283 282 281 281 281 280 281 281 282 282 283 283 283 283 283 282 283 283 282 282 281 281 281 281 281 281 282 282 281 281 281 280 280 280 281 282 282 282 281 281
288 287 286 285 283 282 281 280 279 279 280 280 280 282 281 281 282 282 282 282 281 282 281 281 281 281 282 281 280 280 279 279 279 280 281 281 282 283 283 283 283 283 282
289 287 285 285 285 283 281 280 279 278 278 279 279 280 280 280 281 281 281 280 279 280 280 279 279 279 280 280 279 278 278 278 279 279 280 280 281 283 283 282 282 282 282
288 288 287 288 288 287 284 282 281 279 278 277 277 278 278 279 279 279 279 279 278 277 278 278 278 278 279 278 279 279 278 278 278 279 279 280 281 282 283 281 281 281 281
289 288 288 288 288 286 284 284 281 279 279 278 277 278 278 278 278 277 277 277 278 277 277 277 277 277 278 278 279 279 278 277 278 279 279 280 280 281 281 281 281 281 281
288 288 289 289 288 286 283 282 281 279 278 278 277 277 278 278 276 275 276 278 278 278 278 277 276 277 277 277 278 278 278 277 277 278 279 280 281 281 280 281 281 281 280
288 289 288 288 287 286 284 282 280 280 279 278 277 276 276 277 275 275 276 277 277 278 278 277 276 274 275 277 278 277 277 277 277 278 279 279 280 280 280 280 281 281 280
Height
5912 5912 5912 5912 5912 5912 5911 5911 5911 5911 5910 5910 5910 5909 5909 5909 5908 5908 5908 5907 5907 5907 5907 5906 5906 5905 5905 5904 5904 5903 5903 5902 5902 5901 5901 5900 5900 5900 5899 5899 5898 5898 5897
5912 5912 5912 5912 5912 5912 5911 5911 5911 5910 5910 5910 5910 5909 5909 5909 5908 5908 5907 5907 5906 5906 5906 5906 5905 5905 5904 5904 5903 5903 5902 5901 5901 5900 5900 5900 5899 5899 5898 5898 5897 5897 5896
5912 5912 5912 5912 5912 5911 5911 5911 5911 5910 5910 5910 5909 5909 5908 5908 5908 5907 5907 5906 5906 5905 5905 5904 5904 5903 5903 5902 5902 5901 5901 5900 5900 5899 5899 5899 5898 5898 5897 5897 5896 5895 5895
5912 5912 5912 5912 5912 5911 5911 5911 5910 5910 5910 5909 5909 5909 5908 5908 5907 5907 5906 5905 5905 5904 5904 5903 5903 5902 5902 5901 5900 5900 5899 5899 5898 5898 5898 5897 5897 5896 5896 5895 5895 5894 5893
5912 5912 5912 5912 5912 5911 5911 5910 5910 5910 5909 5909 5908 5908 5907 5907 5906 5906 5905 5904 5904 5903 5903 5902 5901 5901 5900 5900 5899 5898 5898 5897 5897 5897 5896 5896 5895 5895 5894 5894 5893 5892 5892
5912 5911 5911 5911 5911 5911 5910 5910 5909 5909 5909 5908 5907 5907 5906 5906 5905 5905 5904 5903 5903 5902 5901 5900 5900 5899 5899 5898 5898 5897 5896 5896 5895 5895 5894 5894 5894 5893 5893 5892 5891 5891 5890
5911 5911 5911 5910 5910 5910 5910 5909 5909 5908 5907 5907 5906 5906 5905 5904 5904 5903 5903 5902 5901 5901 5900 5899 5898 5897 5897 5896 5896 5895 5895 5894 5893 5893 5893 5892 5892 5891 5891 5890 5889 5889 5888
5911 5910 5910 5910 5909 5909 5909 5908 5908 5907 5906 5905 5905 5904 5904 5904 5902 5902 5901 5900 5899 5899 5898 5897 5896 5896 5895 5894 5894 5893 5892 5892 5891 5891 5890 5890 5889 5889 5888 5888 5887 5886 5886
5910 5910 5909 5909 5908 5908 5907 5907 5906 5906 5905 5904 5903 5903 5902 5901 5901 5900 5899 5898 5898 5897 5896 5896 5895 5894 5892 5892 5891 5891 5890 5889 5889 5888 5887 5887 5886 5886 5885 5885 5884 5883 5883
5910 5909 5909 5908 5907 5907 5906 5905 5905 5904 5903 5902 5901 5900 5899 5899 5898 5898 5897 5896 5895 5894 5894 5893 5892 5891 5890 5889 5888 5888 5887 5886 5886 5885 5885 5884 5883 5883 5882 5881 5880 5880 5879
5908 5908 5907 5907 5906 5905 5904 5903 5902 5901 5900 5899 5898 5897 5896 5895 5894 5894 5893 5893 5892 5891 5890 5889 5889 5888 5887 5886 5885 5885 5884 5883 5883 5882 5881 5881 5880 5879 5878 5877 5876 5876 5875
5907 5906 5906 5905 5904 5903 5902 5901 5900 5899 5898 5896 5895 5894 5893 5892 5891 5890 5889 5889 5888 5887 5886 5886 5885 5884 5883 5882 5881 5880 5880 5879 5879 5878 5877 5877 5876 5875 5874 5873 5872 5871 5871
5904 5904 5903 5902 5901 5900 5899 5898 5897 5895 5894 5893 5892 5890 5889 5888 5887 5887 5886 5885 5884 5883 5882 5881 5880 5879 5878 5877 5876 5876 5875 5875 5874 5873 5872 5872 5871 5870 5869 5868 5867 5867 5866
5901 5901 5900 5899 5898 5897 5895 5894 5893 5892 5890 5889 5888 5887 5885 5884 5884 5883 5882 5881 5880 5879 5878 5876 5875 5874 5873 5872 5871 5870 5870 5870 5869 5868 5867 5867 5866 5865 5864 5863 5862 5862 5861
5897 5897 5896 5895 5894 5893 5891 5890 5889 5887 5886 5885 5884 5883 5881 5880 5879 5878 5877 5876 5875 5874 5873 5871 5870 5868 5867 5866 5866 5865 5864 5864 5863 5862 5862 5861 5860 5860 5859 5858 5857 5856 5855
5893 5892 5891 5890 5889 5888 5886 5885 5884 5883 5881 5880 5879 5878 5876 5875 5874 5873 5871 5870 5869 5868 5867 5866 5864 5863 5862 5861 5860 5859 5858 5857 5857 5856 5856 5855 5854 5853 5852 5852 5850 5850 5848
5888 5887 5886 5885 5884 5882 5881 5880 5878 5877 5876 5874 5873 5872 5871 5869 5868 5867 5866 5865 5863 5862 5861 5859 5858 5857 5856 5855 5854 5853 5852 5851 5850 5850 5849 5848 5848 5847 5846 5845 5844 5843 5842
5882 5881 5880 5879 5878 5876 5875 5874 5872 5871 5870 5868 5867 5866 5865 5864 5862 5861 5859 5858 5857 5855 5854 5853 5852 5850 5849 5848 5847 5846 5845 5844 5844 5843 5842 5841 5841 5840 5839 5837 5836 5835 5835
5876 5875 5874 5872 5871 5869 5868 5867 5865 5864 5863 5862 5860 5859 5858 5857 5856 5854 5853 5851 5850 5848 5847 5846 5845 5844 5842 5841 5840 5839 5838 5837 5836 5835 5834 5834 5833 5832 5831 5830 5829 5828 5827
5870 5868 5867 5865 5863 5862 5860 5859 5858 5857 5856 5855 5853 5852 5851 5849 5848 5847 5845 5844 5842 5841 5839 5838 5837 5836 5835 5834 5833 5831 5830 5830 5829 5828 5827 5826 5825 5824 5823 5822 5821 5820 5819
5863 5861 5859 5857 5855 5854 5852 5851 5850 5849 5848 5847 5845 5844 5843 5841 5840 5839 5837 5836 5834 5833 5832 5830 5829 5828 5827 5826 5825 5824 5823 5821 5820 5820 5819 5818 5817 5816 5815 5814 5813 5812 5811
5855 5853 5851 5849 5847 5845 5844 5843 5841 5840 5839 5838 5837 5835 5834 5833 5831 5830 5828 5827 5826 5825 5823 5822 5821 5820 5819 5818 5817 5816 5815 5814 5813 5812 5811 5810 5809 5808 5807 5806 5805 5803 5802
5846 5844 5843 5841 5839 5837 5835 5834 5832 5831 5829 5828 5827 5826 5825 5824 5822 5821 5820 5818 5817 5815 5814 5813 5812 5811 5810 5809 5808 5807 5806 5805 5804 5803 5802 5801 5800 5799 5798 5796 5796 5795 5794
5837 5835 5833 5831 5829 5827 5826 5824 5822 5821 5820 5819 5817 5816 5815 5813 5812 5811 5810 5809 5808 5807 5805 5804 5803 5803 5802 5800 5799 5798 5797 5797 5796 5794 5793 5792 5791 5790 5788 5787 5786 5785 5784
5827 5825 5823 5821 5819 5817 5816 5814 5812 5810 5809 5808 5807 5805 5804 5803 5802 5801 5800 5799 5798 5797 5796 5795 5794 5793 5792 5790 5789 5788 5788 5787 5786 5785 5784 5783 5782 5781 5779 5778 5777 5776 5775
5817 5814 5812 5810 5808 5806 5805 5803 5801 5799 5799 5797 5796 5795 5793 5793 5792 5790 5790 5789 5788 5787 5786 5784 5783 5782 5781 5780 5779 5778 5778 5777 5776 5775 5774 5773 5772 5771 5770 5769 5767 5766 5765